User: anonymous   Login
Location: *
(51.5000°N, 0.1100°W)
Time: 01:15:32
(UTC+00:00)
Language:

Cosmos 1833 - Orbit

View from above orbital plane
View from above orbital plane
View from above satellite
View from above satellite

Ground track
Ground track

The orbit data is extracted from the following two-line orbital elements,

1 17589U 87027A   24194.59371712  .00000071  00000-0  63799-4 0  9995
2 17589  70.9135 157.8371 0020658  32.8200 327.4199 14.12954242924830
Epoch (UTC): 12 July 2024 14:14:57
Eccentricity: 0.0020658
inclination: 70.9135°
perigee height: 834 km
apogee height: 864 km
right ascension of ascending node: 157.8371°
argument of perigee: 32.8200°
revolutions per day: 14.12954242
mean anomaly at epoch: 327.4199°
orbit number at epoch: 92483

The dashed part of the orbit path shows where the satellite is in the earth's shadow,  

DLR